Location: Stara Lesna
(49.1528°N, 20.2911°E)
Time: 09:58:01
(UTC+02:00)

YAOGAN 11 - Pass Details

Date: 13 July 2020
Orbit: 615 x 668 km, 98.3° (Epoch: 05 August)

Event Time Altitude Azimuth Distance (km) Brightness Sun altitude
Exits shadow 00:42:36 42° 167° (SSE) 908 4.4 -19.1°
Maximum altitude 00:44:04 88° 251° (WSW) 650 4.0 -19.1°
Drops below altitude 10° 00:48:35 10° 345° (NNW) 2,064 7.9 -19.0°
Sets 00:50:49 0° 346° (NNW) 2,988 9.0 -19.0°
